Temperature
0 0 0 0 0 0 0 0 1 1 1 1 0 -1 -1 -1 -1 -1 -0 -0 -0 0 0 0 0 0 0 0 0 -0 -0 -0 -0 -0 -0 -0 -0 -0 -0 0 0 0 0 0
-0 0 -0 -0 -0 -0 -0 -0 0 0 0 -0 -1 -1 -1 -1 -1 -2 -1 -1 -0 -0 -0 -0 -0 -0 -0 -0 -0 -0 -1 -1 -1 -1 -1 -1 -1 -0 -0 -0 -0 -0 -0 -0
-0 -1 -0 -0 -1 -1 -1 -1 -1 0 0 -1 -2 -2 -2 -2 -2 -1 -1 -1 -1 -1 -1 -1 -1 -1 -1 -1 -1 -1 -1 -1 -1 -1 -1 -1 -1 -1 -1 -1 -1 -1 -1 -1
-2 -1 1 1 -1 -1 -1 -1 -2 -2 -2 -2 -2 -2 -1 -1 -1 -1 -1 -1 -1 -1 -1 -1 -1 -1 -1 -1 -1 -1 -1 -2 -1 -1 -1 -1 -1 -1 -1 -1 -1 -1 -1 -1
-2 -1 -1 -0 -1 -2 -2 -1 -2 -2 -2 -3 -2 -2 -2 -1 -1 -1 -1 -1 -1 -1 -1 -1 -1 -1 -1 -2 -2 -2 -2 -2 -2 -2 -2 -2 -2 -2 -2 -2 -2 -1 -1 -1
-3 -1 -0 0 -1 -2 -2 -1 -2 -3 -3 -3 -3 -2 -2 -1 -1 -1 -1 -2 -2 -1 -1 -1 -2 -2 -2 -2 -2 -2 -2 -2 -2 -2 -2 -2 -2 -2 -2 -2 -2 -2 -2 -2
-3 -2 -2 -2 -2 -2 -1 -0 -2 -2 -3 -3 -3 -2 -2 -1 -2 -2 -2 -2 -2 -2 -2 -2 -2 -2 -2 -2 -3 -3 -3 -3 -3 -3 -3 -3 -3 -3 -3 -2 -2 -2 -3 -3
-3 -2 -1 -3 -3 -2 -2 -2 -2 -2 -2 -3 -2 -2 -2 -2 -2 -2 -2 -2 -2 -2 -2 -2 -2 -2 -2 -3 -3 -3 -3 -3 -3 -3 -3 -3 -3 -3 -3 -3 -3 -3 -3 -3
-3 -2 -2 -3 -2 -2 -2 -2 -2 -2 -2 -2 -3 -3 -2 -2 -2 -3 -3 -3 -3 -3 -3 -3 -3 -3 -3 -3 -3 -3 -3 -3 -3 -3 -3 -3 -3 -3 -3 -4 -4 -4 -4 -4
-5 -4 -3 -3 -2 -2 -2 -2 -2 -2 -2 -2 -2 -3 -3 -3 -3 -3 -3 -3 -3 -3 -3 -3 -3 -4 -4 -4 -4 -4 -4 -4 -4 -4 -4 -4 -4 -4 -4 -4 -4 -4 -4 -4
-5 -5 -4 -3 -2 -2 -2 -2 -2 -2 -2 -2 -2 -3 -3 -3 -3 -3 -4 -4 -4 -4 -4 -4 -4 -4 -4 -4 -4 -4 -4 -4 -4 -4 -4 -4 -4 -5 -5 -5 -5 -5 -5 -5
-3 -4 -4 -3 -2 -2 -2 -2 -2 -2 -2 -2 -3 -3 -3 -3 -3 -4 -4 -4 -4 -4 -4 -4 -4 -4 -4 -4 -4 -4 -4 -4 -4 -4 -5 -5 -5 -5 -5 -5 -5 -5 -5 -5
-3 -3 -3 -3 -2 -2 -3 -3 -3 -3 -3 -3 -3 -3 -3 -4 -4 -4 -4 -4 -4 -4 -5 -5 -5 -5 -5 -5 -5 -5 -5 -5 -5 -5 -5 -5 -5 -5 -5 -5 -5 -5 -5 -5
-3 -3 -4 -3 -3 -3 -3 -3 -3 -3 -3 -4 -4 -4 -4 -4 -4 -4 -5 -5 -5 -5 -5 -5 -5 -5 -5 -5 -5 -5 -5 -5 -5 -5 -5 -5 -5 -5 -5 -5 -5 -5 -5 -5
-3 -4 -4 -4 -4 -4 -4 -4 -4 -4 -4 -4 -4 -4 -4 -4 -4 -5 -5 -5 -5 -5 -5 -5 -5 -5 -5 -5 -5 -5 -5 -5 -5 -5 -5 -6 -6 -6 -6 -6 -6 -6 -5 -5
-4 -4 -4 -4 -4 -4 -4 -4 -4 -4 -4 -4 -4 -4 -5 -5 -5 -5 -5 -5 -5 -5 -5 -5 -5 -6 -6 -6 -5 -5 -6 -6 -6 -6 -6 -6 -6 -6 -6 -6 -6 -6 -6 -6
-4 -4 -4 -4 -4 -4 -4 -5 -5 -5 -5 -5 -5 -5 -5 -5 -5 -5 -5 -5 -6 -6 -6 -6 -6 -6 -6 -6 -6 -6 -6 -6 -6 -6 -6 -6 -6 -6 -6 -6 -6 -6 -6 -6
-4 -4 -4 -4 -4 -4 -4 -5 -5 -5 -5 -5 -5 -5 -5 -5 -5 -5 -6 -6 -6 -6 -6 -6 -6 -6 -6 -6 -6 -6 -6 -6 -6 -6 -6 -6 -6 -6 -6 -6 -6 -6 -6 -6
-4 -4 -4 -4 -4 -4 -4 -5 -5 -5 -5 -5 -5 -5 -6 -6 -6 -6 -6 -6 -6 -6 -6 -6 -6 -6 -6 -6 -6 -7 -7 -7 -7 -7 -7 -7 -7 -7 -7 -7 -7 -7 -7 -7
-4 -4 -4 -4 -4 -5 -5 -5 -5 -5 -5 -5 -6 -6 -6 -6 -6 -6 -6 -6 -6 -7 -7 -7 -6 -6 -6 -6 -7 -7 -7 -7 -7 -7 -7 -7 -7 -7 -7 -7 -7 -7 -7 -7
-4 -4 -4 -4 -5 -5 -5 -5 -5 -5 -5 -6 -6 -6 -6 -6 -6 -6 -6 -6 -6 -7 -7 -7 -7 -7 -7 -7 -7 -7 -7 -7 -7 -7 -7 -7 -7 -7 -7 -7 -7 -7 -7 -7
-5 -5 -5 -5 -5 -5 -5 -5 -5 -5 -6 -6 -6 -6 -6 -6 -6 -6 -6 -6 -7 -7 -7 -7 -7 -7 -7 -7 -7 -7 -7 -7 -7 -7 -7 -7 -7 -7 -7 -7 -7 -7 -8 -7
-5 -5 -5 -5 -5 -5 -5 -5 -5 -6 -6 -6 -6 -6 -6 -6 -6 -6 -6 -7 -7 -7 -7 -7 -7 -7 -7 -7 -7 -7 -7 -7 -7 -7 -7 -7 -7 -7 -7 -7 -7 -7 -7 -7
-5 -5 -5 -5 -5 -5 -5 -6 -6 -6 -6 -6 -6 -6 -6 -6 -6 -7 -7 -7 -7 -7 -7 -7 -7 -7 -7 -7 -7 -7 -7 -7 -7 -7 -7 -7 -7 -7 -7 -7 -7 -7 -7 -7
-5 -5 -5 -6 -6 -6 -6 -6 -6 -6 -6 -6 -6 -6 -7 -7 -7 -7 -7 -7 -7 -7 -7 -7 -7 -7 -7 -7 -7 -7 -7 -7 -7 -7 -7 -7 -7 -7 -7 -7 -7 -8 -8 -8
-6 -6 -6 -6 -6 -6 -6 -6 -6 -6 -6 -7 -7 -7 -7 -7 -7 -7 -7 -7 -7 -7 -7 -7 -7 -7 -7 -7 -7 -7 -7 -7 -7 -7 -7 -7 -7 -7 -7 -8 -8 -8 -8 -8
-6 -6 -6 -6 -6 -7 -7 -7 -7 -7 -7 -7 -7 -7 -7 -7 -7 -7 -7 -7 -7 -7 -7 -7 -8 -8 -8 -8 -8 -8 -8 -8 -8 -8 -8 -8 -7 -8 -8 -8 -8 -8 -8 -8
Wind_Speed
4 4 3 4 5 5 7 8 8 9 9 11 7 6 5 4 4 4 5 5 4 3 3 3 4 4 4 4 4 3 3 3 3 3 3 3 2 2 2 2 2 2 2 2
2 2 3 5 7 8 9 8 9 9 11 9 5 3 4 4 4 4 5 6 5 3 3 4 4 4 4 4 4 3 2 3 3 3 3 3 2 2 2 2 2 2 2 2
3 2 3 6 7 8 6 6 6 9 10 5 4 4 5 5 4 4 5 6 5 4 4 4 4 4 4 4 4 2 2 2 3 3 3 3 3 2 2 2 2 2 2 1
0 2 5 6 1 5 6 6 7 6 6 5 5 5 4 3 3 4 5 5 5 4 4 4 3 4 4 3 2 2 2 3 3 3 3 3 3 2 2 2 1 1 1 1
2 2 7 6 2 2 3 5 5 6 7 4 3 2 3 3 3 4 4 5 4 4 3 3 3 3 3 3 2 2 2 3 3 3 3 3 3 3 2 1 2 1 1 1
3 3 6 5 1 1 2 5 3 4 6 3 0 2 5 3 3 4 4 4 3 3 2 2 3 2 2 3 3 3 3 2 2 2 2 2 2 2 2 1 1 2 2 1
4 5 7 5 1 3 3 5 3 3 4 3 4 5 4 3 2 3 3 3 3 2 2 2 2 2 2 2 3 3 3 2 2 2 2 2 2 2 2 2 2 2 2 2
4 4 7 2 4 4 5 2 2 3 3 3 4 3 2 2 2 2 3 3 2 2 3 3 2 2 2 3 3 3 3 3 3 3 2 2 2 2 2 2 2 2 2 2
7 6 3 3 5 3 2 3 4 3 3 3 3 3 3 2 2 2 2 2 2 2 3 3 3 2 2 3 3 3 3 3 3 3 3 2 2 2 2 2 1 2 2 2
5 6 5 5 4 3 3 4 5 4 4 3 3 3 3 2 2 2 2 2 2 2 2 3 4 3 2 3 3 3 3 3 3 3 3 3 2 2 1 1 1 2 2 2
6 6 5 4 4 4 4 4 4 3 3 3 3 3 2 2 2 2 2 2 1 1 2 3 4 3 3 3 3 2 3 3 3 3 3 3 3 2 2 1 1 2 2 1
6 4 4 6 4 3 3 4 4 3 3 2 3 3 2 2 2 1 1 1 1 2 2 3 3 4 4 4 2 2 2 3 3 3 2 2 2 3 5 4 5 5 4 3
5 4 4 5 4 2 2 3 3 3 2 2 2 2 1 1 1 1 1 1 2 2 3 3 3 4 4 3 2 2 2 2 2 2 2 2 2 2 3 5 6 6 6 6
4 2 4 4 4 4 3 2 1 1 1 1 1 1 1 0 1 1 1 2 2 2 2 3 3 4 4 3 2 2 2 2 2 2 2 2 2 2 2 3 4 4 5 7
3 3 5 4 3 2 1 1 1 1 1 1 0 0 0 0 1 2 2 2 2 2 2 2 3 4 4 3 2 2 2 2 2 2 2 2 2 2 2 2 2 3 3 5
4 3 2 2 2 1 1 1 1 2 1 1 1 1 1 1 1 1 1 1 1 2 3 3 3 4 3 2 2 2 2 3 2 2 2 2 2 2 2 2 2 3 3 4
2 3 2 3 3 3 2 2 2 2 1 1 1 1 1 1 1 2 2 2 2 3 3 2 3 3 2 2 2 2 2 2 3 2 2 2 2 2 2 2 2 3 3 4
5 5 5 5 4 3 3 2 2 1 2 2 1 0 0 0 1 2 3 3 2 3 3 3 2 2 2 1 1 1 1 1 2 2 2 2 2 2 2 2 3 3 3 4
3 3 2 2 2 2 2 2 2 1 1 1 1 1 1 1 2 2 2 1 2 3 4 4 4 2 2 2 2 1 1 1 2 2 2 3 3 2 2 2 2 2 3 3
1 1 1 1 0 1 1 1 1 1 1 1 0 0 1 1 1 1 1 1 2 3 3 3 2 2 2 2 2 1 1 1 1 2 2 1 2 2 2 2 2 2 2 2
1 1 1 1 1 1 1 1 1 1 1 1 1 1 2 2 1 1 0 2 3 3 3 3 2 2 2 2 2 1 1 1 1 1 2 2 2 2 2 2 2 3 2 2
1 1 1 1 1 1 1 0 1 1 0 0 1 1 1 1 1 1 1 2 3 4 2 2 2 2 3 3 1 1 1 1 1 1 2 2 2 2 2 3 3 3 3 3
1 1 1 1 1 1 1 0 0 1 1 1 2 2 2 2 1 1 2 3 2 4 2 2 3 4 3 2 1 1 1 2 2 2 2 2 2 2 3 3 3 3 3 3
1 1 1 0 1 0 1 1 1 1 1 1 2 2 2 1 1 2 2 3 3 3 2 3 4 4 4 2 2 2 2 2 2 2 2 2 2 2 3 3 3 3 3 3
1 1 1 1 1 1 1 1 1 1 1 1 1 1 1 1 2 2 2 2 3 3 2 3 4 4 3 2 2 2 2 2 2 2 2 2 2 3 3 3 3 3 3 3
1 1 2 2 2 1 1 1 1 1 0 1 1 1 1 1 1 1 1 1 2 2 2 2 3 3 2 2 2 2 2 3 3 3 2 3 3 3 3 3 4 3 3 3
1 1 0 0 0 1 1 1 1 1 1 1 1 1 1 1 1 1 1 1 1 1 2 2 2 2 2 2 2 2 2 2 3 3 3 3 3 3 3 4 3 3 3 3
Wind_Direction
248 258 238 241 244 215 207 214 224 247 250 268 266 263 266 271 287 304 310 313 304 310 314 324 331 333 335 330 335 341 342 336 324 320 323 312 296 288 286 285 281 278 275 279
268 254 252 267 262 241 237 235 238 257 267 269 270 266 271 272 275 285 295 300 304 313 315 315 319 324 328 328 330 339 342 335 333 338 339 332 317 310 306 295 287 280 266 265
265 303 336 280 245 221 220 220 210 236 253 277 286 275 268 273 274 273 287 294 299 303 297 298 304 312 315 316 323 343 342 341 342 342 341 333 324 326 315 301 294 293 276 268
248 38 252 253 209 199 218 243 226 238 260 258 260 272 272 261 250 281 297 299 301 304 304 309 318 325 320 327 339 345 343 340 344 344 337 336 342 340 328 317 313 305 299 297
155 236 275 289 259 182 204 269 235 234 258 270 285 302 293 257 249 263 276 289 292 294 297 311 321 325 336 354 356 355 342 335 331 327 330 338 340 335 332 343 341 321 303 307
158 205 248 266 261 183 128 282 257 221 243 250 226 275 275 274 286 290 300 305 308 316 323 325 325 338 359 353 359 349 331 323 325 330 337 336 335 342 353 356 340 347 350 337
194 229 261 263 245 129 171 262 291 227 229 210 218 236 269 287 303 301 309 312 322 329 331 322 332 3 10 359 349 335 338 342 347 348 341 332 350 357 357 4 13 17 4 350
176 219 257 228 137 183 228 284 281 255 229 226 248 269 278 289 305 319 323 324 331 343 333 334 347 14 2 341 335 343 355 359 354 350 342 353 4 353 359 10 16 10 9 348
200 222 261 193 212 238 236 265 270 257 256 235 243 258 274 279 286 305 310 315 328 340 341 345 351 4 351 334 345 358 5 1 354 353 352 358 358 348 353 358 1 345 351 340
253 266 268 264 260 270 261 259 273 267 256 231 239 255 261 269 290 305 310 314 333 356 353 341 342 351 342 338 352 4 357 349 351 356 358 2 359 357 355 343 333 322 325 328
257 276 297 276 255 269 278 280 284 282 253 230 229 247 246 263 273 282 302 315 331 336 334 329 335 342 342 345 353 356 347 345 347 350 347 354 4 10 353 342 316 323 315 313
241 246 243 270 274 266 262 269 270 276 279 260 230 234 238 256 261 266 294 318 332 330 329 328 336 335 337 340 342 339 340 346 344 343 342 346 354 2 15 10 5 360 352 343
252 269 255 271 283 268 258 269 278 269 250 257 254 227 210 231 250 264 290 308 302 301 306 314 325 328 326 329 338 343 330 329 333 341 344 345 347 349 348 360 7 8 5 360
264 282 283 281 284 295 288 291 305 318 302 256 245 230 182 198 262 269 277 290 299 303 305 306 315 318 320 330 338 336 330 333 334 332 334 334 336 338 339 340 344 348 351 353
270 258 255 274 285 303 318 8 16 338 333 343 9 115 122 215 272 283 293 310 328 323 314 315 318 317 325 335 336 330 331 328 327 326 323 323 328 332 332 331 329 329 335 343
292 284 260 260 273 299 343 354 312 288 294 296 319 317 297 270 289 304 316 349 344 310 308 313 312 315 329 337 338 334 328 332 335 331 329 334 335 333 329 329 332 333 332 331
260 277 277 283 279 282 274 267 247 255 266 268 270 317 19 31 10 341 327 323 303 293 299 304 305 317 327 337 338 330 327 328 338 340 331 326 326 324 321 327 329 326 323 325
240 238 229 224 231 248 265 264 252 254 257 264 287 64 57 310 281 294 307 321 331 330 321 310 308 320 319 322 320 315 316 319 324 321 318 321 320 323 326 323 321 317 322 329
256 244 245 236 224 216 230 248 255 259 274 239 199 244 264 268 275 291 306 328 325 316 315 314 325 339 320 314 325 308 315 318 323 325 320 324 337 335 328 322 320 321 324 327
271 266 259 266 242 204 233 254 253 260 255 200 188 275 305 299 298 297 301 293 282 281 292 308 322 321 316 312 327 315 310 313 316 317 324 329 331 333 332 327 323 317 317 317
286 302 306 286 292 287 240 221 209 238 262 194 193 232 261 287 296 295 335 306 303 307 312 323 335 320 319 319 333 337 332 323 321 321 322 324 326 326 325 325 322 319 314 311
269 264 267 272 291 310 308 256 209 214 223 246 256 248 262 287 297 296 271 262 286 315 333 325 322 318 324 332 343 336 327 320 320 322 320 317 315 312 314 316 313 310 306 301
256 250 251 249 251 277 313 317 238 205 214 227 231 231 234 248 245 248 289 294 294 316 333 318 324 334 344 359 3 342 332 328 324 321 313 306 302 301 302 305 304 303 305 308
241 250 260 240 119 70 338 320 317 283 256 252 242 232 219 242 270 260 265 297 318 328 334 328 340 347 358 15 6 351 340 331 321 315 313 309 303 301 297 297 299 300 302 304
213 206 180 152 167 238 257 301 340 348 354 323 307 295 261 234 244 274 289 302 323 345 348 342 348 354 5 2 352 340 331 322 314 311 308 305 301 298 295 293 292 294 297 297
205 217 224 230 228 229 223 204 226 272 289 308 319 318 318 317 307 322 334 336 337 349 353 347 346 349 357 352 346 342 337 332 335 335 322 310 303 299 296 296 293 293 294 295
188 204 208 284 274 218 208 206 219 244 237 231 273 290 301 329 348 358 358 354 348 343 345 349 353 354 351 346 338 334 332 331 328 323 319 314 308 302 302 301 301 302 303 301
Height
1480 1479 1480 1479 1479 1479 1480 1478 1478 1470 1470 1464 1463 1463 1463 1462 1460 1459 1458 1457 1455 1454 1453 1453 1452 1451 1450 1449 1448 1447 1445 1444 1443 1443 1442 1442 1442 1442 1442 1441 1441 1441 1441 1441
1480 1477 1477 1477 1475 1475 1474 1474 1472 1470 1467 1461 1462 1461 1461 1460 1459 1458 1457 1455 1454 1452 1452 1451 1450 1449 1448 1447 1446 1445 1443 1443 1442 1441 1440 1439 1439 1439 1439 1438 1438 1438 1437 1437
1479 1479 1476 1474 1470 1470 1470 1469 1469 1466 1462 1460 1460 1460 1459 1458 1457 1456 1455 1454 1452 1451 1450 1449 1448 1447 1446 1445 1444 1443 1442 1441 1440 1439 1438 1437 1436 1436 1435 1435 1435 1434 1434 1434
1483 1481 1477 1467 1465 1465 1465 1463 1464 1462 1460 1459 1458 1457 1457 1456 1455 1454 1454 1452 1451 1450 1449 1448 1447 1446 1445 1443 1442 1441 1440 1439 1438 1437 1436 1435 1435 1434 1433 1433 1432 1432 1432 1432
1484 1482 1474 1465 1463 1465 1465 1462 1460 1460 1458 1458 1457 1456 1455 1454 1454 1453 1452 1451 1450 1448 1447 1446 1445 1444 1443 1442 1441 1440 1439 1438 1437 1436 1435 1434 1433 1432 1432 1431 1430 1430 1429 1429
1483 1479 1472 1462 1462 1461 1464 1461 1456 1456 1455 1455 1456 1457 1454 1452 1452 1451 1450 1449 1448 1446 1446 1445 1444 1443 1442 1440 1439 1438 1438 1437 1436 1435 1433 1432 1432 1431 1430 1429 1428 1428 1428 1428
1481 1479 1469 1462 1460 1461 1465 1459 1455 1453 1453 1453 1454 1453 1452 1450 1449 1449 1448 1447 1446 1445 1444 1443 1443 1442 1440 1439 1439 1438 1437 1436 1435 1433 1432 1431 1430 1429 1428 1427 1427 1426 1425 1426
1479 1477 1467 1459 1460 1461 1458 1454 1454 1452 1452 1451 1450 1450 1449 1448 1447 1447 1446 1445 1445 1443 1442 1442 1441 1441 1440 1439 1438 1437 1436 1435 1434 1433 1431 1430 1429 1428 1427 1426 1425 1424 1424 1424
1468 1464 1458 1456 1455 1455 1454 1453 1452 1451 1450 1449 1448 1448 1447 1446 1445 1445 1444 1444 1443 1442 1441 1441 1440 1440 1439 1438 1437 1436 1435 1434 1433 1432 1430 1429 1428 1427 1426 1425 1424 1423 1423 1422
1464 1457 1455 1454 1453 1453 1452 1452 1450 1449 1448 1447 1446 1446 1445 1444 1444 1444 1443 1442 1442 1441 1440 1440 1439 1439 1438 1437 1437 1435 1434 1433 1432 1431 1429 1428 1427 1426 1425 1424 1423 1422 1421 1421
1460 1455 1453 1451 1450 1450 1449 1449 1448 1447 1446 1445 1444 1443 1443 1443 1442 1442 1442 1441 1441 1440 1440 1439 1439 1438 1437 1437 1436 1434 1433 1432 1431 1430 1429 1427 1427 1426 1425 1424 1423 1422 1421 1420
1454 1451 1451 1448 1447 1447 1446 1445 1445 1444 1443 1443 1442 1442 1441 1441 1441 1441 1440 1440 1440 1439 1439 1438 1438 1437 1437 1436 1435 1434 1432 1431 1430 1429 1428 1427 1426 1425 1424 1423 1422 1421 1421 1420
1449 1447 1447 1446 1445 1444 1443 1443 1442 1441 1441 1440 1440 1440 1440 1440 1440 1440 1439 1439 1438 1438 1438 1437 1437 1436 1435 1435 1434 1433 1432 1431 1430 1428 1427 1426 1425 1424 1423 1423 1422 1421 1420 1419
1446 1445 1444 1443 1442 1442 1441 1440 1440 1439 1439 1439 1439 1439 1439 1438 1438 1438 1438 1437 1437 1437 1436 1436 1435 1435 1434 1434 1433 1432 1431 1430 1429 1428 1427 1425 1424 1423 1422 1421 1420 1419 1419 1418
1443 1443 1442 1441 1440 1439 1439 1438 1437 1437 1437 1437 1437 1437 1437 1437 1437 1437 1437 1436 1436 1436 1435 1435 1434 1434 1433 1432 1431 1431 1430 1429 1428 1427 1426 1425 1424 1423 1422 1421 1419 1418 1417 1417
1440 1440 1439 1438 1437 1437 1436 1436 1436 1436 1436 1436 1436 1436 1436 1436 1436 1436 1435 1435 1434 1434 1434 1433 1433 1433 1432 1431 1430 1429 1428 1428 1427 1426 1425 1424 1423 1422 1421 1420 1419 1417 1416 1415
1437 1436 1436 1435 1435 1435 1435 1435 1435 1435 1435 1435 1435 1435 1435 1435 1435 1435 1434 1434 1433 1433 1433 1432 1432 1431 1431 1430 1429 1428 1427 1426 1426 1425 1424 1423 1422 1421 1420 1419 1418 1417 1416 1415
1435 1435 1434 1434 1434 1433 1434 1434 1434 1434 1434 1434 1434 1434 1434 1434 1433 1433 1433 1432 1432 1432 1432 1431 1431 1430 1430 1429 1428 1427 1426 1425 1424 1423 1423 1422 1421 1420 1419 1418 1417 1416 1415 1415
1433 1433 1433 1433 1432 1432 1433 1433 1433 1433 1433 1433 1433 1433 1433 1433 1432 1432 1432 1431 1431 1430 1430 1430 1429 1429 1428 1427 1427 1426 1425 1424 1423 1422 1421 1421 1420 1419 1418 1417 1417 1416 1415 1414
1432 1432 1431 1431 1432 1432 1432 1432 1432 1432 1432 1432 1432 1432 1432 1431 1431 1431 1431 1430 1430 1429 1429 1428 1428 1427 1427 1426 1425 1425 1424 1423 1422 1421 1420 1420 1419 1418 1418 1417 1416 1415 1414 1413
1431 1430 1430 1430 1431 1431 1431 1431 1431 1430 1430 1430 1430 1430 1430 1430 1430 1430 1429 1429 1429 1429 1428 1427 1427 1426 1426 1425 1424 1423 1423 1422 1421 1420 1420 1419 1418 1418 1417 1416 1415 1414 1413 1412
1429 1429 1430 1430 1430 1429 1430 1430 1429 1429 1429 1429 1429 1429 1429 1429 1429 1429 1429 1429 1428 1428 1427 1426 1426 1425 1424 1424 1423 1422 1422 1421 1420 1419 1419 1418 1418 1417 1416 1415 1414 1413 1412 1411
1429 1429 1428 1428 1428 1428 1428 1428 1428 1428 1428 1428 1428 1428 1428 1428 1428 1428 1428 1428 1427 1427 1426 1426 1425 1424 1423 1423 1422 1421 1421 1420 1419 1419 1418 1417 1417 1416 1415 1414 1413 1412 1411 1410
1427 1427 1428 1427 1427 1427 1427 1427 1427 1427 1427 1427 1427 1427 1427 1427 1427 1427 1427 1427 1426 1426 1425 1424 1424 1423 1423 1422 1421 1421 1420 1419 1419 1418 1417 1417 1416 1415 1414 1413 1412 1411 1410 1409
1426 1426 1426 1426 1426 1426 1426 1426 1426 1426 1426 1426 1426 1427 1427 1426 1426 1426 1426 1425 1425 1424 1424 1423 1423 1422 1422 1421 1421 1420 1419 1419 1418 1417 1416 1415 1415 1414 1413 1412 1411 1410 1409 1408
1425 1425 1425 1425 1425 1425 1425 1424 1424 1424 1425 1425 1425 1425 1425 1425 1425 1425 1425 1424 1424 1424 1423 1422 1422 1421 1421 1420 1420 1419 1419 1418 1417 1416 1415 1414 1413 1412 1411 1410 1409 1408 1407 1406
1424 1424 1424 1424 1424 1424 1424 1424 1423 1423 1424 1424 1424 1424 1424 1424 1424 1424 1424 1424 1423 1423 1422 1422 1421 1421 1420 1420 1419 1418 1418 1417 1416 1415 1414 1413 1412 1411 1409 1408 1407 1406 1405 1404